Tracking 28792 objects as of 24-Apr-2024
HD Live streaming from Space Station
objects crossing your sky now

COSMOS 761

Track COSMOS 761 now!
10-day predictions
COSMOS 761 is classified as:


NORAD ID: 8285
Int'l Code: 1975-086A
Perigee: 1,406.3 km
Apogee: 1,488.7 km
Inclination: 74.0 °
Period: 114.7 minutes
Semi major axis: 7818 km
RCS: 0.7223 m2 (medium)
Launch date: September 17, 1975
Source: Commonwealth of Independent States (former USSR) (CIS)
Launch site: PLESETSK MISSILE AND SPACE COMPLEX (PKMTR)
Your satellite tracking list
Your tracking list is empty




NASA's NSSDC Master Catalog

Two Line Element Set (TLE):
1 08285U 75086A   24114.80928972  .00000009  00000-0  15357-3 0  9999
2 08285  74.0130   1.2920 0052716 179.2133 248.0625 12.55795987228031
Source of the keplerian elements: AFSPC